Regional Weather Roundup
Issued by NWS

Home | Current Version | Previous Version | Text Only | Print | Product List | Glossary Off
Versions: 1 2 3 4 5 6 7 8 9 10 11 12 13 14 15 16 17 18 19 20 21 22 23 24 25 26 27

000
ASUS45 KBOU 171107
RWRCO

WEATHER ROUNDUP FOR COLORADO
NATIONAL WEATHER SERVICE DENVER/BOULDER CO
400 AM MST TUE JAN 17 2017

NOTE: "FAIR" INDICATES FEW OR NO CLOUDS BELOW 12000 FEET WITH NO
SIGNIFICANT WEATHER AND/OR OBSTRUCTIONS TO VISIBILITY.

COZ001>005-013-030-031-171200-
...NORTHWEST COLORADO...

CITY           SKY/WX    TMP DP  RH WIND       PRES   REMARKS
CRAIG          CLOUDY    15  12  88 SW5       30.20S FOG     WCI   8
HAYDEN         CLOUDY    14   9  79 CALM      30.17S
MEEKER         CLOUDY    15  10  80 CALM      30.18S
MOUNT WERNER   NOT AVBL
STEAMBOAT SPGS CLOUDY    14  12  93 NW6       30.16S WCI   5
WALDEN           N/A    N/A N/A N/A CALM      30.13R VSB 1/4
$$

COZ006>008-011-171200-
...WEST CENTRAL VALLEYS...

CITY           SKY/WX    TMP DP  RH WIND       PRES   REMARKS
GRAND JUNCTION FAIR      26  20  77 NW5       30.16S WCI  20
MONTROSE       CLOUDY    32  25  75 E3        30.17R
EAGLE          CLOUDY    25  21  85 CALM      30.16F
RIFLE          FAIR      19  16  88 CALM      30.19R
DELTA          CLOUDY    35  29  80 CALM      30.17S
NUCLA          CLOUDY    32  27  80 CALM      30.17S
$$

COZ017>023-064>068-171200-
...SOUTHWEST COLORADO...

CITY           SKY/WX    TMP DP  RH WIND       PRES   REMARKS
DURANGO        FOG       31  29  92 CALM      30.10S VSB 1/4
CORTEZ         CLOUDY    34  32  92 CALM      30.11R
PAGOSA SPRINGS CLOUDY    32  32 100 CALM      30.12R
TELLURIDE      CLOUDY    23  22  98 CALM      30.12S FOG
WOLF CREEK PAS CLOUDY    18  18 100 S10       30.15S WCI   6
$$

COZ009-010-012-014-032>034-037-058>063-171200-
...CENTRAL COLORADO...

CITY           SKY/WX    TMP DP  RH WIND       PRES   REMARKS
ASPEN          FAIR      16  13  88 S7        30.11R WCI   6
BUENA VISTA    CLOUDY    25  22  89 CALM      30.07F
COPPER MTN     FAIR      23  18  80 MISG      30.09F
BERTHOUD PASS  NOT AVBL
COTTONWOOD PAS CLOUDY   N/A N/A N/A CALM      30.06F
GUNNISON       LGT SNOW  23  22  96 NE6       30.12S FOG     WCI  16
KREMMLING      CLOUDY    18  12  79 CALM      30.16S
LEADVILLE      CLOUDY    20  17  88 NE5       30.08S WCI  13
MONARCH PASS   CLOUDY    19  18  93 MISG      30.19R
SALIDA         CLOUDY    29  28  95 W3        30.15F
SUNLIGHT       FAIR      19  18  93 S8        30.13S FOG     WCI   9
WILKERSON PASS CLOUDY   N/A N/A N/A W6        30.08S
$$

COZ069>075-171200-
...SAN LUIS VALLEY/SANGRE DE CRISTO MOUNTAINS...

CITY           SKY/WX    TMP DP  RH WIND       PRES   REMARKS
ALAMOSA        LGT SNOW  26  25  96 CALM      30.10S FOG
LA VETA PASS   LGT SNOW  23  21  93 NE29G40   30.04F WCI   6
SAGUACHE       LGT SNOW  28  28 100 CALM      30.11R
$$

COZ035-036-038>040-171200-
...NORTHERN COLORADO FRONT RANGE...

CITY           SKY/WX    TMP DP  RH WIND       PRES   REMARKS
DENVER INTL AP FAIR      20  14  77 SW8       30.04F WCI  10
DMNS CITY PARK   N/A     23  22  93 SE9       30.05F WCI  13
AURORA         CLEAR     22  20  92 S8        30.05F WCI  12
FRONT RANGE AP FAIR      21  18  86 S6        30.05F WCI  14
ERIE MUNI ARPT FAIR      14  12  93 CALM      30.05F
BOULDER MUN AP FAIR      25  23  93 CALM      30.04F
CENTENNIAL     FAIR      21  18  88 S5        30.04F WCI  15
BROOMFIELD     FAIR      27  23  86 CALM      30.04F
FORT COLLINS   FAIR      23  19  86 SE6       30.05F WCI  16
LONGMONT       FOG       19  16  90 W5        30.07F VSB 1/2 WCI  12
$$

COZ041-046-047-076>085-087-088-171200-
...PIKES PEAK/PALMER DIVIDE AND SOUTHERN FOOTHILLS...

CITY           SKY/WX    TMP DP  RH WIND       PRES   REMARKS
COLO. SPRINGS  FOG       30  28  92 S6        30.08F VSB 1/4 WCI  24
A. F. ACADEMY  CLOUDY    27  25  94 CALM      30.05F
SCHRIEVER AFB  NOT AVBL
ELLICOTT       CLOUDY   N/A N/A N/A W7        30.06F
FALCON         FOG       28  28  99 S8        30.06F VSB 1/4 WCI  20
FORT CARSON    MOCLDY    30  28  93 VRB3      30.09F
LIMON          FAIR      14  12  92 N5        30.07F WCI   6
MONUMENT HILL  FOG       23  21  93 S12       30.05F VSB 3/4 WCI  12
TRINIDAD       FOG       23  20  88 S3        30.10S VSB<1/4
$$

COZ042>045-048>051-090-091-171200-
...NORTHEAST COLORADO...

CITY           SKY/WX    TMP DP  RH WIND       PRES   REMARKS
GREELEY ARPT   FAIR      17  16  95 N5        30.08F WCI  10
AKRON          FAIR      20  10  65 W10       30.05F WCI   9
BURLINGTON     FAIR      27  20  75 W9        30.09F WCI  18
WRAY           NOT AVBL
STERLING       FAIR      14  12  92 CALM      30.08S
HOLYOKE        FAIR      19  12  73 W10       30.07S WCI   8
FORT MORGAN    FAIR      20  15  82 W7        30.07F WCI  11
$$

COZ086-089-092>099-171200-
...SOUTHEAST COLORADO...

CITY           SKY/WX    TMP DP  RH WIND       PRES   REMARKS
PUEBLO         CLOUDY    33  30  88 CALM      30.10F
LA JUNTA       CLOUDY    33  31  92 SW9       30.11F WCI  25
LAMAR          CLOUDY    33  31  92 SW7       30.11F WCI  27
SPRINGFIELD      N/A     30  29  96 NW9       30.12S WCI  22
$$




USA.gov is the U.S. government's official web portal to all federal, state and local government web resources and services.